[[{"header":{"parameterUnit":"m.s-1","parameterCategory":2,"la1":30.2991,"la2":30.254,"lo1":-89.0895,"lo2":-89.0444,"dy":0.0017,"dx":0.0017,"nx":28,"ny":28,"refTime":"2025-05-27T03:00:00:Z","depth":"0","parameterNumber":2,"parameterNumberName":"U-component_of_CURRENTS"},"data":[0,0,0,0,0,0,0,0,0,0,0,0,0,0,0,0,0,0,0,0,0,0,0,0,0,0,0,0,0,0,0,0,0,0,0,0,0,0,0,0,0,0,0,0,0,0,0,0,0,0,0,0,0,0,0,0,0,0,-0.4745,-0.4744,0,-0.4602,-0.46,-0.4598,-0.4456,-0.4454,-0.4453,-0.4451,-0.4306,-0.4303,-0.4301,0,0,0,0,0,0,0,0,0,0,0,0,0,-0.4721,-0.4723,-0.4745,-0.4744,-0.4742,-0.4602,-0.46,-0.4597,-0.4456,-0.4454,-0.4452,-0.445,-0.4306,-0.4304,-0.4301,0,0,0,0,0,0,0,0,0,0,0,0,0,-0.4666,-0.4724,-0.4745,-0.4658,-0.4649,-0.4603,-0.46,-0.4597,-0.4456,-0.4454,-0.4452,-0.445,-0.4307,-0.4304,-0.43,-0.4322,0,0,-0.4289,-0.4287,0,0,0,0,0,0,0,0,-0.467,-0.4667,-0.4672,-0.4664,-0.4654,-0.4548,-0.4538,-0.4506,-0.4457,-0.4525,-0.4451,-0.4449,-0.4391,-0.438,-0.4352,-0.4315,-0.4309,-0.4288,-0.4286,-0.4285,-0.4284,0,0,0,0,0,0,0,-0.4674,-0.4671,-0.4684,-0.4671,-0.466,-0.4566,-0.4557,-0.453,-0.4469,-0.4519,-0.4509,-0.4501,-0.4385,-0.4356,-0.4348,-0.4307,-0.4289,-0.4285,-0.4283,-0.4281,-0.4226,-0.4227,0,0,0,0,0,0,-0.4713,-0.4677,-0.4689,-0.468,-0.4661,-0.4569,-0.4559,-0.4581,-0.4469,-0.4451,-0.4503,-0.4495,-0.4364,-0.4352,-0.4342,-0.432,-0.4285,-0.4281,-0.4279,-0.4225,-0.4226,-0.4227,0,0,0,0,0,0,-0.4713,-0.4717,-0.4694,-0.4676,-0.4667,-0.4574,-0.4598,-0.4579,-0.4548,-0.4458,-0.4438,-0.4492,-0.4361,-0.4347,-0.4317,-0.4315,-0.4279,-0.4276,-0.4224,-0.4226,-0.4227,-0.4303,0,0,0,0,0,0,-0.4714,-0.4719,-0.4739,-0.468,-0.467,-0.4685,-0.46,-0.4578,-0.4548,-0.4536,-0.4443,-0.4426,-0.4359,-0.4323,-0.4313,-0.4309,-0.4273,-0.4223,-0.4225,-0.4226,-0.4299,-0.4306,-0.4312,0,0,0,0,0,-0.4714,-0.4772,-0.4742,-0.4742,-0.4706,-0.4687,-0.4673,-0.4594,-0.4551,-0.4554,-0.448,-0.4429,-0.4324,-0.4321,-0.4309,-0.4304,-0.4223,-0.4224,-0.4226,-0.4296,-0.4305,-0.4312,0,0,0,0,0,0,-0.4768,-0.4762,-0.4727,-0.4778,-0.4738,-0.4665,-0.4661,-0.4612,-0.4556,-0.4541,-0.4447,-0.4427,-0.44,-0.4353,-0.4352,-0.4293,-0.4263,-0.4262,-0.432,-0.4327,-0.4334,-0.4294,-0.427,0,0,0,0,0,-0.4795,-0.4834,-0.4795,-0.4827,-0.4819,-0.4741,-0.472,-0.4674,-0.462,-0.4591,-0.4525,-0.4456,-0.4401,-0.4366,-0.4324,-0.43,-0.4203,-0.4287,-0.4294,-0.43,-0.426,-0.4087,-0.4072,-0.4233,-0.4233,-0.4233,0,0,-0.4824,-0.4822,-0.4842,-0.4839,-0.4798,-0.4781,-0.4722,-0.4712,-0.4682,-0.459,-0.4541,-0.4492,-0.4406,-0.4368,-0.435,-0.4323,-0.4222,-0.4302,-0.4307,-0.4263,-0.4087,-0.407,-0.4056,-0.4234,-0.4234,-0.4233,0,0,-0.4868,-0.49,-0.4919,-0.4901,-0.4863,-0.4832,-0.4839,-0.4781,-0.4741,-0.4714,-0.4622,-0.4564,-0.4508,-0.4413,-0.4364,-0.4386,-0.4275,-0.439,-0.437,-0.4205,-0.4188,-0.4172,-0.4102,-0.4079,-0.4377,-0.4377,-0.4377,0,-0.4874,-0.4864,-0.4918,-0.4909,-0.4852,-0.4861,-0.4808,-0.4819,-0.4753,-0.4678,-0.4716,-0.4543,-0.4515,-0.4374,-0.4395,-0.4395,-0.4305,-0.4349,-0.4208,-0.419,-0.4172,-0.4102,-0.4075,-0.4381,-0.438,-0.438,-0.438,0,-0.4866,-0.4867,-0.488,-0.4858,-0.4864,-0.4814,-0.4831,-0.4821,-0.4795,-0.474,-0.4636,-0.4596,-0.4458,-0.4474,-0.4453,-0.4305,-0.429,-0.4248,-0.418,-0.4159,-0.409,-0.406,-0.4386,-0.4385,-0.4384,-0.4383,0,0,-0.4697,-0.4837,-0.4791,-0.476,-0.4782,-0.4756,-0.4782,-0.4694,-0.4606,-0.4638,-0.4477,-0.447,-0.4425,-0.4367,-0.4328,-0.422,-0.4097,-0.4193,-0.4182,-0.411,-0.3773,-0.3705,-0.3667,-0.4007,-0.4001,-0.3996,-0.3801,0,-0.456,-0.4553,-0.464,-0.4568,-0.4532,-0.4577,-0.4564,-0.4544,-0.4519,-0.4421,-0.4401,-0.4286,-0.4396,-0.4308,-0.4239,-0.4113,-0.4009,-0.4156,-0.3812,-0.3803,-0.3731,-0.3625,-0.3502,-0.3308,-0.3772,-0.3767,-0.3763,0,-0.4359,-0.4379,-0.4336,-0.4345,-0.4318,-0.4325,-0.42,-0.4207,-0.4167,-0.413,-0.4077,-0.4068,-0.3987,-0.406,-0.3872,-0.3954,-0.3867,-0.3796,-0.3784,-0.3651,-0.3675,-0.3388,-0.3236,-0.324,-0.3717,-0.3721,-0.3724,0,-0.4068,-0.4084,-0.4035,-0.4035,-0.4121,-0.4079,-0.4093,-0.4075,-0.4025,-0.3946,-0.3881,-0.3803,-0.3758,-0.3645,-0.3654,-0.3702,-0.3425,-0.3452,-0.3309,-0.3308,-0.3095,-0.3084,-0.2874,-0.3233,-0.3233,-0.3233,-0.3234,0,-0.3802,-0.3721,-0.391,-0.3875,-0.3736,-0.3892,-0.3745,-0.3744,-0.3738,-0.3667,-0.3728,-0.3646,-0.364,-0.3555,-0.3529,-0.336,-0.3327,-0.3255,-0.3205,-0.3133,-0.3127,-0.3035,-0.31,-0.3226,-0.3228,-0.3229,-0.3231,0,-0.3489,-0.3629,-0.3555,-0.3628,-0.3636,-0.3546,-0.3588,-0.3517,-0.3545,-0.3466,-0.3448,-0.3477,-0.3376,-0.3371,-0.3182,-0.3181,-0.2955,-0.295,-0.2935,-0.2884,-0.2744,-0.282,-0.2528,-0.2453,-0.2713,-0.2709,-0.2706,0,-0.3332,-0.3291,-0.3337,-0.3317,-0.3356,-0.3304,-0.329,-0.3372,-0.337,-0.3374,-0.3341,-0.3251,-0.3158,-0.2931,-0.2856,-0.2706,-0.2772,-0.253,-0.2574,-0.266,-0.2707,-0.2788,-0.2754,-0.2369,-0.2364,-0.2359,-0.2355,0,-0.2985,-0.3033,-0.3024,-0.3002,-0.3004,-0.298,-0.3024,-0.2999,-0.314,-0.3054,-0.3012,-0.292,-0.2797,-0.2599,-0.2462,-0.2381,-0.2481,-0.2429,-0.2451,-0.2339,-0.2465,-0.2396,-0.2679,-0.2315,-0.2319,-0.2322,-0.2324,-0.2326,-0.2696,-0.2622,-0.2683,-0.2632,-0.2662,-0.2702,-0.2589,-0.2674,-0.2603,-0.2458,-0.263,-0.2337,-0.2469,-0.2226,-0.2146,-0.2024,-0.2127,-0.1992,-0.2061,-0.2125,-0.2068,-0.2316,-0.1939,-0.1941,-0.1943,-0.1944,-0.1945,0,-0.2346,-0.237,-0.2317,-0.2331,-0.231,-0.2411,-0.2422,-0.228,-0.2106,-0.1984,-0.1827,-0.1789,-0.172,-0.179,-0.1806,-0.1716,-0.1696,-0.1706,-0.1785,-0.1752,-0.1867,-0.1869,-0.1537,-0.1537,-0.1537,-0.1537,-0.1537,-0.1537,-0.2188,-0.2091,-0.2113,-0.2008,-0.202,-0.1883,-0.1828,-0.1622,-0.1448,-0.1073,-0.0852,-0.0818,-0.1229,-0.1727,-0.1734,-0.164,-0.1641,-0.1576,-0.1636,-0.1764,-0.1799,-0.1831,-0.1844,-0.1512,-0.1513,-0.1441,-0.1441,-0.1441]},{"header":{"parameterUnit":"m.s-1","parameterCategory":2,"la1":30.2991,"la2":30.254,"lo1":-89.0895,"lo2":-89.0444,"dy":0.0017,"dx":0.0017,"nx":28,"ny":28,"refTime":"2025-05-27T03:00:00:Z","depth":"0","parameterNumber":3,"parameterNumberName":"V-component_of_CURRENTS"},"data":[0,0,0,0,0,0,0,0,0,0,0,0,0,0,0,0,0,0,0,0,0,0,0,0,0,0,0,0,0,0,0,0,0,0,0,0,0,0,0,0,0,0,0,0,0,0,0,0,0,0,0,0,0,0,0,0,0,0,-0.071,-0.0709,0,-0.0638,-0.0637,-0.0636,-0.0514,-0.0512,-0.051,-0.0508,-0.0348,-0.0345,-0.0343,0,0,0,0,0,0,0,0,0,0,0,0,0,-0.0769,-0.0769,-0.071,-0.0709,-0.0709,-0.0638,-0.0637,-0.0635,-0.0514,-0.0512,-0.0509,-0.0507,-0.0348,-0.0346,-0.0343,0,0,0,0,0,0,0,0,0,0,0,0,0,-0.0724,-0.0768,-0.071,-0.0641,-0.0634,-0.0638,-0.0637,-0.0635,-0.0515,-0.0512,-0.0508,-0.0505,-0.0349,-0.0346,-0.0343,-0.0386,0,0,-0.0332,-0.0331,0,0,0,0,0,0,0,0,-0.0726,-0.0721,-0.0652,-0.0645,-0.0638,-0.0583,-0.0599,-0.0548,-0.0516,-0.0558,-0.0507,-0.0504,-0.0422,-0.0412,-0.0405,-0.0378,-0.0371,-0.0332,-0.033,-0.0328,-0.0327,0,0,0,0,0,0,0,-0.073,-0.0724,-0.068,-0.0651,-0.0643,-0.0622,-0.0611,-0.0589,-0.0506,-0.0554,-0.0546,-0.0541,-0.0416,-0.0408,-0.04,-0.0369,-0.0332,-0.0329,-0.0327,-0.0326,-0.0185,-0.0184,0,0,0,0,0,0,-0.0744,-0.0727,-0.0682,-0.0678,-0.0677,-0.0624,-0.0612,-0.0602,-0.0508,-0.0492,-0.0544,-0.0536,-0.0416,-0.0404,-0.0394,-0.0335,-0.0328,-0.0325,-0.0323,-0.0187,-0.0185,-0.0183,0,0,0,0,0,0,-0.0745,-0.074,-0.0685,-0.0702,-0.0694,-0.0626,-0.0616,-0.0603,-0.0582,-0.0501,-0.0482,-0.0536,-0.0413,-0.0398,-0.0369,-0.0331,-0.0324,-0.0321,-0.0189,-0.0187,-0.0184,-0.0284,0,0,0,0,0,0,-0.0747,-0.0741,-0.0747,-0.0703,-0.0693,-0.0688,-0.0619,-0.0604,-0.0585,-0.0574,-0.0489,-0.0471,-0.0409,-0.0374,-0.0365,-0.0326,-0.0318,-0.0191,-0.0188,-0.0185,-0.0283,-0.0285,-0.0287,0,0,0,0,0,-0.075,-0.0774,-0.0748,-0.0743,-0.0701,-0.069,-0.0683,-0.0623,-0.0589,-0.0591,-0.0531,-0.0473,-0.0344,-0.0374,-0.0362,-0.0321,-0.0193,-0.0189,-0.0185,-0.0282,-0.0284,-0.0287,0,0,0,0,0,0,-0.0809,-0.0763,-0.0733,-0.0742,-0.0717,-0.0669,-0.0674,-0.0638,-0.0597,-0.0583,-0.0498,-0.0478,-0.0422,-0.0368,-0.0401,-0.0262,-0.0241,-0.0235,-0.0317,-0.0319,-0.0321,-0.0331,-0.0315,0,0,0,0,0,-0.0828,-0.0827,-0.0782,-0.0792,-0.0782,-0.0733,-0.0724,-0.0686,-0.0644,-0.0622,-0.0562,-0.0479,-0.0404,-0.0364,-0.0303,-0.0267,-0.0199,-0.0213,-0.0216,-0.0218,-0.0213,-0.0104,-0.0097,-0.0171,-0.0171,-0.0171,0,0,-0.0857,-0.0831,-0.0832,-0.0805,-0.078,-0.0774,-0.0718,-0.0713,-0.0694,-0.0615,-0.0579,-0.0507,-0.0399,-0.0337,-0.0302,-0.0285,-0.0161,-0.0213,-0.0217,-0.021,-0.01,-0.0093,-0.0087,-0.0168,-0.0169,-0.0169,0,0,-0.0925,-0.089,-0.0915,-0.0888,-0.0859,-0.0822,-0.0824,-0.0779,-0.0741,-0.072,-0.0624,-0.0541,-0.0463,-0.0354,-0.0292,-0.0273,-0.0187,-0.0234,-0.0249,-0.0145,-0.0139,-0.0132,-0.0048,-0.0033,-0.0224,-0.0224,-0.0224,0,-0.0964,-0.097,-0.0925,-0.0931,-0.0909,-0.0846,-0.0855,-0.0819,-0.0768,-0.0728,-0.0714,-0.0539,-0.0457,-0.0331,-0.0305,-0.0277,-0.0218,-0.026,-0.0152,-0.0144,-0.0136,-0.005,-0.0033,-0.0228,-0.0228,-0.0227,-0.0227,0,-0.1031,-0.1033,-0.1046,-0.1016,-0.0994,-0.0994,-0.0928,-0.0898,-0.0849,-0.0792,-0.069,-0.0588,-0.0466,-0.0411,-0.0357,-0.0232,-0.021,-0.0184,-0.016,-0.0135,-0.0045,-0.0026,-0.0235,-0.0233,-0.0232,-0.0231,0,0,-0.1112,-0.1099,-0.1096,-0.1093,-0.1029,-0.1021,-0.0979,-0.0913,-0.0863,-0.08,-0.0722,-0.0583,-0.0515,-0.0437,-0.0339,-0.024,-0.0132,-0.0195,-0.0187,-0.0137,0.0083,0.0155,0.0184,-0.0099,-0.0096,-0.0093,0.0117,0,-0.1173,-0.1216,-0.1171,-0.1183,-0.1193,-0.1095,-0.1055,-0.0978,-0.0897,-0.081,-0.0674,-0.0574,-0.0526,-0.0457,-0.0355,-0.018,-0.0083,-0.0192,0.0077,0.0085,0.0124,0.0209,0.0298,0.0498,0.0137,0.014,0.0143,0,-0.1237,-0.1253,-0.1296,-0.1251,-0.124,-0.1228,-0.1119,-0.1078,-0.0925,-0.0852,-0.073,-0.0621,-0.0449,-0.0423,-0.0146,-0.0224,-0.008,0.0041,0.0052,0.0171,0.0195,0.0423,0.0548,0.0738,0.0174,0.0172,0.0169,0,-0.1321,-0.1324,-0.1363,-0.1348,-0.1296,-0.1276,-0.1234,-0.11,-0.1026,-0.0879,-0.0791,-0.0611,-0.0486,-0.0306,-0.0061,-0.0096,0.024,0.0228,0.0425,0.0431,0.059,0.0604,0.0914,0.0423,0.0422,0.0422,0.0421,0,-0.1397,-0.1415,-0.1412,-0.1431,-0.1421,-0.1367,-0.1311,-0.1229,-0.1087,-0.0963,-0.0833,-0.0677,-0.0449,-0.0228,-0.0048,0.0263,0.0256,0.0451,0.0508,0.0558,0.0566,0.0805,0.0847,0.043,0.0428,0.0426,0.0425,0,-0.147,-0.1487,-0.151,-0.1486,-0.1472,-0.1467,-0.1358,-0.1307,-0.1178,-0.1007,-0.0954,-0.0696,-0.0405,-0.0171,0.0169,0.0313,0.0725,0.0685,0.0717,0.0774,0.1104,0.1135,0.1492,0.1633,0.0935,0.0938,0.0941,0,-0.15,-0.1535,-0.154,-0.1553,-0.1546,-0.1519,-0.1484,-0.1364,-0.1281,-0.0983,-0.0899,-0.0591,-0.0306,0.0175,0.0466,0.0798,0.0918,0.1059,0.1017,0.1174,0.1251,0.126,0.1351,0.1188,0.1193,0.1196,0.1199,0,-0.1516,-0.1529,-0.1552,-0.1592,-0.1595,-0.1557,-0.15,-0.1403,-0.1216,-0.0962,-0.0579,-0.0326,0.0061,0.0492,0.0819,0.1014,0.1219,0.1145,0.1332,0.1508,0.1522,0.1665,0.0969,0.1233,0.123,0.1227,0.1225,0.1224,-0.1487,-0.1514,-0.1564,-0.1591,-0.1609,-0.1557,-0.14,-0.1255,-0.0968,-0.0482,-0.0289,0.0245,0.0579,0.1075,0.126,0.1612,0.1524,0.1752,0.1785,0.1787,0.1912,0.1273,0.1576,0.1575,0.1574,0.1573,0.1572,0,-0.1435,-0.1498,-0.1542,-0.1571,-0.1575,-0.1565,-0.1365,-0.1101,-0.0629,-0.0219,0.0301,0.099,0.139,0.1624,0.1993,0.2236,0.2277,0.2353,0.2405,0.2475,0.1962,0.1962,0.2336,0.2336,0.2335,0.2335,0.2335,0.2335,-0.1418,-0.1475,-0.1523,-0.1528,-0.1513,-0.1276,-0.1074,-0.0644,-0.0251,0.0546,0.107,0.1438,0.1744,0.2345,0.2729,0.2774,0.2986,0.2967,0.3064,0.2704,0.2649,0.2598,0.2613,0.3117,0.3118,0.3601,0.3606,0.3609]}],[{"header":{"parameterUnit":"m.s-1","parameterCategory":2,"la1":30.2991,"la2":30.254,"lo1":-89.0895,"lo2":-89.0444,"dy":0.0017,"dx":0.0017,"nx":28,"ny":28,"refTime":"2025-05-27T03:00:00:Z","depth":"2","parameterNumber":2,"parameterNumberName":"U-component_of_CURRENTS"},"data":[0,0,0,0,0,0,0,0,0,0,0,0,0,0,0,0,0,0,0,0,0,0,0,0,0,0,0,0,0,0,0,0,0,0,0,0,0,0,0,0,0,0,0,0,0,0,0,0,0,0,0,0,0,0,0,0,0,0,-0.2927,-0.2929,0,-0.3012,-0.3012,-0.3012,-0.2996,-0.2995,-0.2994,-0.2994,-0.3108,-0.3111,-0.3115,0,0,0,0,0,0,0,0,0,0,0,0,0,-0.2804,-0.2805,-0.2927,-0.2929,-0.2931,-0.3012,-0.3012,-0.3012,-0.2996,-0.2995,-0.2994,-0.2994,-0.3107,-0.3111,-0.3115,0,0,0,0,0,0,0,0,0,0,0,0,0,-0.286,-0.2806,-0.2927,-0.294,-0.2943,-0.3012,-0.3012,-0.3012,-0.2996,-0.2995,-0.2994,-0.2993,-0.3105,-0.311,-0.3116,-0.3166,0,0,-0.3132,-0.3134,0,0,0,0,0,0,0,0,-0.2857,-0.2863,-0.2936,-0.294,-0.2943,-0.3002,-0.3011,-0.3069,-0.2996,-0.2965,-0.2994,-0.2993,-0.3083,-0.309,-0.3092,-0.3171,-0.3176,-0.3132,-0.3136,-0.3138,-0.314,0,0,0,0,0,0,0,-0.2853,-0.286,-0.295,-0.2939,-0.2943,-0.2962,-0.2967,-0.3021,-0.302,-0.2967,-0.2969,-0.2996,-0.3083,-0.3087,-0.3095,-0.3177,-0.3132,-0.3137,-0.314,-0.3142,-0.3255,-0.3255,0,0,0,0,0,0,-0.2862,-0.2856,-0.2947,-0.2954,-0.2909,-0.2965,-0.297,-0.2975,-0.3019,-0.3027,-0.2996,-0.2995,-0.3078,-0.3089,-0.3099,-0.3122,-0.3138,-0.3143,-0.3146,-0.3255,-0.3255,-0.3254,0,0,0,0,0,0,-0.2859,-0.2868,-0.2944,-0.2916,-0.2929,-0.2969,-0.2974,-0.2977,-0.3001,-0.3042,-0.3049,-0.3019,-0.3078,-0.3092,-0.3172,-0.3128,-0.3145,-0.315,-0.3255,-0.3255,-0.3255,-0.3194,0,0,0,0,0,0,-0.2854,-0.2866,-0.2868,-0.2916,-0.2931,-0.2981,-0.2976,-0.298,-0.3023,-0.3021,-0.3065,-0.3072,-0.3078,-0.3164,-0.3177,-0.3136,-0.3154,-0.3255,-0.3255,-0.3255,-0.3197,-0.3192,-0.3188,0,0,0,0,0,-0.2849,-0.2851,-0.2867,-0.2879,-0.2933,-0.2982,-0.299,-0.3009,-0.3025,-0.3027,-0.3078,-0.3072,-0.3167,-0.3171,-0.3186,-0.3144,-0.3256,-0.3255,-0.3255,-0.3198,-0.3193,-0.3188,0,0,0,0,0,0,-0.2804,-0.2853,-0.287,-0.2888,-0.2935,-0.2983,-0.2998,-0.3028,-0.3069,-0.3072,-0.3111,-0.3123,-0.3153,-0.3184,-0.3186,-0.3173,-0.3194,-0.3197,-0.3146,-0.3141,-0.3137,-0.3134,-0.3159,0,0,0,0,0,-0.2799,-0.2799,-0.2868,-0.2879,-0.291,-0.2963,-0.299,-0.3007,-0.3058,-0.3073,-0.3123,-0.3154,-0.316,-0.3185,-0.3203,-0.3243,-0.3249,-0.3214,-0.3209,-0.3205,-0.3213,-0.3207,-0.3203,-0.3253,-0.3253,-0.3253,0,0,-0.2792,-0.2813,-0.282,-0.2869,-0.2906,-0.2948,-0.2972,-0.3013,-0.3032,-0.3085,-0.3137,-0.3154,-0.317,-0.3177,-0.3191,-0.3204,-0.3189,-0.3205,-0.3201,-0.3211,-0.3206,-0.3201,-0.3197,-0.3253,-0.3253,-0.3253,0,0,-0.278,-0.2796,-0.2806,-0.2846,-0.2908,-0.2936,-0.296,-0.3032,-0.3042,-0.3107,-0.3115,-0.3129,-0.3192,-0.3166,-0.3162,-0.3162,-0.3163,-0.3157,-0.3141,-0.3134,-0.313,-0.3126,-0.31,-0.3094,-0.3158,-0.3158,-0.3158,0,-0.277,-0.2793,-0.2819,-0.2851,-0.289,-0.2939,-0.298,-0.2995,-0.3082,-0.3106,-0.3114,-0.3165,-0.3166,-0.3151,-0.3124,-0.3145,-0.3154,-0.3154,-0.3127,-0.3124,-0.3121,-0.3095,-0.309,-0.3155,-0.3155,-0.3156,-0.3156,0,-0.2785,-0.2808,-0.2821,-0.2866,-0.2903,-0.294,-0.2989,-0.3025,-0.3057,-0.3085,-0.3105,-0.3111,-0.314,-0.311,-0.3115,-0.3083,-0.3097,-0.3116,-0.3135,-0.3112,-0.3086,-0.3082,-0.3151,-0.3152,-0.3153,-0.3153,0,0,-0.2741,-0.2817,-0.2819,-0.2852,-0.2916,-0.2949,-0.2979,-0.3028,-0.3057,-0.3088,-0.312,-0.3081,-0.3098,-0.3095,-0.3086,-0.3065,-0.3016,-0.3085,-0.3086,-0.305,-0.3,-0.2884,-0.2868,-0.3044,-0.3043,-0.3043,-0.2979,0,-0.2748,-0.2799,-0.2836,-0.2887,-0.2929,-0.298,-0.3008,-0.3047,-0.3077,-0.3118,-0.3089,-0.3106,-0.3084,-0.3087,-0.3061,-0.3042,-0.3008,-0.3031,-0.3037,-0.3036,-0.2929,-0.286,-0.2652,-0.2568,-0.2975,-0.2975,-0.2974,0,-0.2748,-0.2782,-0.2835,-0.2908,-0.2933,-0.2965,-0.3027,-0.3057,-0.31,-0.3126,-0.3139,-0.3145,-0.3106,-0.3093,-0.3036,-0.3064,-0.3025,-0.2998,-0.2996,-0.2911,-0.2912,-0.2665,-0.2545,-0.2967,-0.2967,-0.2968,-0.2968,0,-0.2692,-0.2776,-0.281,-0.2839,-0.293,-0.2958,-0.3002,-0.306,-0.3084,-0.313,-0.3152,-0.3145,-0.3121,-0.3094,-0.3022,-0.3045,-0.2958,-0.2985,-0.2838,-0.283,-0.2663,-0.264,-0.2935,-0.2935,-0.2935,-0.2935,-0.2935,0,-0.2668,-0.2693,-0.279,-0.2809,-0.2851,-0.293,-0.2969,-0.3021,-0.3081,-0.3087,-0.3142,-0.3125,-0.3123,-0.3077,-0.3031,-0.2899,-0.296,-0.2813,-0.2798,-0.2633,-0.2609,-0.298,-0.2986,-0.2933,-0.2933,-0.2934,-0.2934,0,-0.2582,-0.265,-0.2692,-0.2792,-0.2821,-0.2845,-0.2937,-0.2958,-0.3039,-0.3046,-0.3056,-0.3097,-0.3027,-0.3,-0.2933,-0.2874,-0.2789,-0.2728,-0.2519,-0.248,-0.2669,-0.2674,-0.2568,-0.2563,-0.2559,-0.2556,-0.2553,0,-0.2536,-0.255,-0.2648,-0.2658,-0.2697,-0.2755,-0.2783,-0.2904,-0.2927,-0.2996,-0.2977,-0.2956,-0.2869,-0.2745,-0.2641,-0.2525,-0.2643,-0.2296,-0.2285,-0.2631,-0.2628,-0.2639,-0.2648,-0.2035,-0.2029,-0.2023,-0.2019,0,-0.2431,-0.2466,-0.2493,-0.2526,-0.2559,-0.2602,-0.266,-0.2678,-0.2788,-0.2805,-0.2774,-0.2718,-0.2597,-0.2372,-0.2254,-0.2174,-0.2305,-0.2177,-0.2579,-0.2163,-0.2124,-0.2124,-0.2151,-0.1969,-0.1974,-0.1977,-0.198,-0.1982,-0.2321,-0.231,-0.234,-0.2353,-0.2393,-0.24,-0.2355,-0.2435,-0.244,-0.2407,-0.2496,-0.2342,-0.2283,-0.1965,-0.1847,-0.1774,-0.1936,-0.1876,-0.1895,-0.192,-0.1872,-0.1828,-0.1607,-0.161,-0.1612,-0.1614,-0.1616,0,-0.2158,-0.2154,-0.2158,-0.2154,-0.2112,-0.2206,-0.2215,-0.2131,-0.2055,-0.2099,-0.2044,-0.1785,-0.1625,-0.1584,-0.1374,-0.1335,-0.1348,-0.13,-0.1324,-0.1372,-0.1416,-0.1346,-0.094,-0.0938,-0.0936,-0.0935,0,0,-0.2063,-0.1994,-0.1996,-0.1862,-0.1851,-0.1718,-0.167,-0.1607,-0.1582,-0.1484,-0.1428,-0.1528,-0.1516,-0.123,-0.1157,-0.1013,-0.1186,-0.0959,-0.1497,-0.1571,-0.1613,-0.1733,-0.1677,0,0,0,0,0]},{"header":{"parameterUnit":"m.s-1","parameterCategory":2,"la1":30.2991,"la2":30.254,"lo1":-89.0895,"lo2":-89.0444,"dy":0.0017,"dx":0.0017,"nx":28,"ny":28,"refTime":"2025-05-27T03:00:00:Z","depth":"2","parameterNumber":3,"parameterNumberName":"V-component_of_CURRENTS"},"data":[0,0,0,0,0,0,0,0,0,0,0,0,0,0,0,0,0,0,0,0,0,0,0,0,0,0,0,0,0,0,0,0,0,0,0,0,0,0,0,0,0,0,0,0,0,0,0,0,0,0,0,0,0,0,0,0,0,0,-0.0447,-0.0446,0,-0.033,-0.0329,-0.0327,-0.0253,-0.0253,-0.0252,-0.0252,-0.0054,-0.0049,-0.0044,0,0,0,0,0,0,0,0,0,0,0,0,0,-0.0547,-0.0545,-0.0448,-0.0446,-0.0445,-0.0331,-0.0329,-0.0327,-0.0253,-0.0253,-0.0252,-0.0252,-0.0055,-0.005,-0.0044,0,0,0,0,0,0,0,0,0,0,0,0,0,-0.0473,-0.0545,-0.0448,-0.0395,-0.039,-0.0331,-0.0329,-0.0327,-0.0253,-0.0253,-0.0252,-0.0252,-0.0057,-0.005,-0.0043,-0.0005,0,0,-0.002,-0.0016,0,0,0,0,0,0,0,0,-0.0477,-0.0469,-0.0404,-0.0399,-0.0392,-0.0307,-0.0291,-0.0215,-0.0253,-0.0303,-0.0252,-0.0252,-0.0132,-0.0119,-0.0096,0.0005,0.0013,-0.0019,-0.0014,-0.0011,-0.0009,0,0,0,0,0,0,0,-0.0482,-0.0473,-0.0399,-0.0403,-0.0396,-0.0357,-0.0347,-0.0276,-0.0219,-0.0299,-0.0293,-0.0283,-0.0128,-0.0104,-0.0091,0.0016,-0.0019,-0.0013,-0.0008,-0.0005,0.0171,0.0171,0,0,0,0,0,0,-0.0504,-0.0478,-0.0403,-0.0396,-0.0436,-0.0356,-0.0344,-0.0334,-0.0221,-0.0205,-0.0284,-0.028,-0.0117,-0.01,-0.0084,-0.0027,-0.0011,-0.0004,0.0,0.0171,0.0171,0.0171,0,0,0,0,0,0,-0.0506,-0.0498,-0.0408,-0.0436,-0.0422,-0.0356,-0.0344,-0.0332,-0.0305,-0.0211,-0.0193,-0.027,-0.0116,-0.0094,-0.0018,-0.0019,-0.0001,0.0006,0.0171,0.0171,0.0171,0.0083,0,0,0,0,0,0,-0.051,-0.05,-0.0503,-0.0437,-0.0421,-0.0381,-0.0344,-0.033,-0.03,-0.0294,-0.0193,-0.0174,-0.0114,-0.003,-0.0011,-0.0008,0.0012,0.0171,0.0171,0.0171,0.0086,0.008,0.0075,0,0,0,0,0,-0.0514,-0.0521,-0.0504,-0.0495,-0.0427,-0.0381,-0.0369,-0.0319,-0.03,-0.0293,-0.0219,-0.0177,-0.0015,-0.0023,-0.0001,0.0003,0.017,0.0171,0.0171,0.0088,0.0081,0.0076,0,0,0,0,0,0,-0.0567,-0.0512,-0.0492,-0.0483,-0.044,-0.037,-0.0361,-0.0325,-0.0262,-0.0256,-0.0166,-0.0142,-0.008,-0.0024,-0.0036,0.0055,0.0082,0.0086,0.0011,0.0005,0.0,-0.0008,0.0018,0,0,0,0,0,-0.0582,-0.0572,-0.0513,-0.0507,-0.049,-0.0427,-0.0404,-0.037,-0.0306,-0.0279,-0.0205,-0.0128,-0.0061,-0.0018,0.0048,0.0105,0.0163,0.0121,0.0115,0.0111,0.0119,0.0198,0.0201,0.0173,0.0173,0.0173,0,0,-0.0605,-0.0571,-0.0568,-0.0518,-0.0482,-0.0458,-0.0411,-0.0384,-0.0357,-0.0266,-0.0207,-0.0143,-0.0051,0.0007,0.004,0.0056,0.0147,0.0111,0.0106,0.0118,0.0199,0.0202,0.0204,0.0173,0.0173,0.0173,0,0,-0.0642,-0.0614,-0.0617,-0.0583,-0.0535,-0.0491,-0.0487,-0.0416,-0.0381,-0.0322,-0.0252,-0.0183,-0.0082,-0.0012,0.0034,0.0045,0.0113,0.0056,0.0033,0.0109,0.0112,0.0115,0.0178,0.0188,0.0058,0.0058,0.0058,0,-0.0671,-0.0661,-0.0612,-0.06,-0.0576,-0.051,-0.0502,-0.0455,-0.0367,-0.0332,-0.0317,-0.016,-0.0089,-0.0,-0.0001,0.0034,0.0082,0.0045,0.0101,0.0106,0.0111,0.0175,0.0187,0.0054,0.0055,0.0055,0.0055,0,-0.0701,-0.0693,-0.0692,-0.0651,-0.0619,-0.0605,-0.0535,-0.0498,-0.045,-0.0392,-0.0307,-0.0209,-0.0113,-0.0088,-0.0038,0.0033,0.0055,0.0078,0.0111,0.0108,0.0176,0.019,0.0048,0.005,0.0051,0.0052,0,0,-0.0764,-0.0723,-0.0723,-0.0715,-0.0646,-0.0625,-0.0581,-0.0515,-0.0483,-0.0401,-0.0345,-0.0234,-0.018,-0.0123,-0.0052,0.0016,0.0085,0.0054,0.006,0.0107,0.0244,0.0274,0.0293,0.0112,0.0114,0.0116,0.0272,0,-0.0801,-0.0807,-0.0761,-0.0758,-0.0753,-0.0676,-0.0639,-0.057,-0.0501,-0.043,-0.0324,-0.025,-0.0193,-0.0156,-0.0076,0.0047,0.012,0.004,0.025,0.0256,0.0276,0.031,0.027,0.0407,0.0286,0.0288,0.029,0,-0.0841,-0.0839,-0.0852,-0.0812,-0.0801,-0.0785,-0.0713,-0.0669,-0.0551,-0.0497,-0.0398,-0.0311,-0.0187,-0.0155,0.0062,0.0006,0.0119,0.021,0.0218,0.0292,0.0314,0.0396,0.0438,0.0314,0.0312,0.031,0.0309,0,-0.0917,-0.0897,-0.0915,-0.0901,-0.0846,-0.0835,-0.0798,-0.0697,-0.0654,-0.054,-0.0497,-0.0339,-0.0254,-0.0099,0.0096,0.0079,0.033,0.0332,0.047,0.0473,0.0506,0.0509,0.0485,0.0485,0.0484,0.0484,0.0483,0,-0.0973,-0.0984,-0.096,-0.0971,-0.0986,-0.0912,-0.0898,-0.0836,-0.0736,-0.0671,-0.0543,-0.0453,-0.0236,-0.0064,0.0094,0.0335,0.0337,0.0484,0.0525,0.0473,0.047,0.0444,0.0437,0.049,0.0488,0.0487,0.0486,0,-0.1054,-0.1035,-0.1059,-0.1032,-0.1028,-0.1042,-0.0984,-0.0958,-0.0859,-0.077,-0.0738,-0.0524,-0.0292,-0.0072,0.0206,0.0341,0.0552,0.0634,0.0553,0.0582,0.0641,0.0628,0.0801,0.0804,0.0806,0.0808,0.0809,0,-0.1095,-0.1119,-0.1131,-0.1154,-0.115,-0.1151,-0.1141,-0.1043,-0.0996,-0.0797,-0.0752,-0.0516,-0.0317,0.0088,0.0356,0.0644,0.064,0.0766,0.0733,0.0656,0.0678,0.0662,0.0646,0.0739,0.074,0.0741,0.0741,0,-0.117,-0.1179,-0.1202,-0.1257,-0.1274,-0.1276,-0.1244,-0.1221,-0.1069,-0.0969,-0.0767,-0.0594,-0.0185,0.0142,0.0505,0.0665,0.0711,0.079,0.0763,0.0655,0.0608,0.0626,0.0611,0.0748,0.0747,0.0746,0.0746,0.0746,-0.1224,-0.1269,-0.1301,-0.1347,-0.1373,-0.1371,-0.1361,-0.1289,-0.1198,-0.1004,-0.0812,-0.0526,-0.0185,0.033,0.0589,0.0816,0.0818,0.0866,0.086,0.0854,0.0809,0.0768,0.0928,0.0929,0.0929,0.0929,0.0929,0,-0.1271,-0.1314,-0.1376,-0.142,-0.1452,-0.1441,-0.1399,-0.1344,-0.1231,-0.1022,-0.0813,-0.0419,-0.0039,0.0301,0.0672,0.09,0.0867,0.0922,0.0836,0.0829,0.0824,0.0773,0.0885,0.0885,0.0886,0.0886,0,0,-0.1295,-0.1362,-0.1392,-0.1461,-0.1491,-0.1491,-0.1462,-0.1361,-0.1203,-0.0983,-0.0763,-0.0478,-0.0022,0.0223,0.0516,0.0711,0.0701,0.072,0.0735,0.0592,0.0583,0.0776,0.069,0,0,0,0,0]}],[{"header":{"parameterUnit":"m.s-1","parameterCategory":2,"la1":30.2991,"la2":30.254,"lo1":-89.0895,"lo2":-89.0444,"dy":0.0017,"dx":0.0017,"nx":28,"ny":28,"refTime":"2025-05-27T03:00:00:Z","depth":"4","parameterNumber":2,"parameterNumberName":"U-component_of_CURRENTS"},"data":[0,0,0,0,0,0,0,0,0,0,0,0,0,0,0,0,0,0,0,0,0,0,0,0,0,0,0,0,0,0,0,0,0,0,0,0,0,0,0,0,0,0,0,0,0,0,0,0,0,0,0,0,0,0,0,0,0,0,-0.1905,-0.1906,0,-0.1964,-0.1965,-0.1965,-0.1993,-0.1993,-0.1993,-0.1993,-0.207,-0.2072,-0.2074,0,0,0,0,0,0,0,0,0,0,0,0,0,-0.1841,-0.1842,-0.1905,-0.1906,-0.1907,-0.1964,-0.1965,-0.1965,-0.1993,-0.1993,-0.1993,-0.1993,-0.2069,-0.2072,-0.2074,0,0,0,0,0,0,0,0,0,0,0,0,0,-0.188,-0.1842,-0.1905,-0.1928,-0.1931,-0.1964,-0.1965,-0.1966,-0.1993,-0.1993,-0.1993,-0.1993,-0.2069,-0.2071,-0.2074,-0.2092,0,0,-0.2084,-0.2085,0,0,0,0,0,0,0,0,-0.1878,-0.1882,-0.1924,-0.1927,-0.193,-0.1972,-0.197,-0.2009,-0.1993,-0.1968,-0.1993,-0.1993,-0.2039,-0.2045,-0.2054,-0.2096,-0.2099,-0.2084,-0.2086,-0.2087,-0.2088,0,0,0,0,0,0,0,-0.1875,-0.188,-0.1928,-0.1925,-0.1928,-0.1944,-0.1949,-0.1978,-0.2003,-0.197,-0.1973,-0.1981,-0.2041,-0.2051,-0.2056,-0.21,-0.2084,-0.2087,-0.2089,-0.209,-0.2184,-0.2185,0,0,0,0,0,0,-0.1868,-0.1878,-0.1926,-0.193,-0.1904,-0.1945,-0.1951,-0.1958,-0.2002,-0.2009,-0.198,-0.1982,-0.2046,-0.2053,-0.2059,-0.2138,-0.2087,-0.209,-0.2092,-0.2184,-0.2185,-0.2185,0,0,0,0,0,0,-0.1867,-0.1872,-0.1924,-0.1906,-0.1913,-0.1946,-0.1953,-0.1959,-0.1996,-0.201,-0.2017,-0.2015,-0.2046,-0.2055,-0.21,-0.2139,-0.2091,-0.2094,-0.2183,-0.2184,-0.2185,-0.2261,0,0,0,0,0,0,-0.1865,-0.1871,-0.1891,-0.1905,-0.1914,-0.1954,-0.1954,-0.196,-0.2,-0.2002,-0.2042,-0.2047,-0.2047,-0.2095,-0.2103,-0.2143,-0.2097,-0.2182,-0.2183,-0.2185,-0.2258,-0.2265,-0.2271,0,0,0,0,0,-0.1862,-0.188,-0.1892,-0.1899,-0.1935,-0.1955,-0.1962,-0.1984,-0.2002,-0.2019,-0.2045,-0.2047,-0.2108,-0.2099,-0.2108,-0.2149,-0.2181,-0.2183,-0.2185,-0.2255,-0.2263,-0.227,0,0,0,0,0,0,-0.1864,-0.1885,-0.1898,-0.1923,-0.1945,-0.1961,-0.1989,-0.2004,-0.2039,-0.2055,-0.2065,-0.2072,-0.2122,-0.2121,-0.211,-0.2175,-0.2143,-0.2146,-0.2193,-0.2201,-0.2207,-0.2211,-0.2099,0,0,0,0,0,-0.1874,-0.1893,-0.1913,-0.1936,-0.1953,-0.198,-0.2,-0.2015,-0.204,-0.2058,-0.2085,-0.2109,-0.2131,-0.2155,-0.2169,-0.2218,-0.22,-0.2244,-0.2251,-0.2257,-0.2262,-0.2271,-0.228,-0.219,-0.219,-0.219,0,0,-0.188,-0.1897,-0.1908,-0.1939,-0.1964,-0.1996,-0.1993,-0.2032,-0.2065,-0.2062,-0.2127,-0.2138,-0.2146,-0.219,-0.2213,-0.2201,-0.2269,-0.2259,-0.2264,-0.2266,-0.2274,-0.2283,-0.2291,-0.2192,-0.2191,-0.2191,0,0,-0.1896,-0.1922,-0.1945,-0.197,-0.2012,-0.2027,-0.2046,-0.2082,-0.2109,-0.2161,-0.2164,-0.2197,-0.2241,-0.2252,-0.2261,-0.2313,-0.2298,-0.2321,-0.2371,-0.238,-0.2388,-0.2395,-0.2369,-0.2373,-0.2331,-0.2331,-0.2332,0,-0.1909,-0.1939,-0.1956,-0.1989,-0.2021,-0.2047,-0.2085,-0.2114,-0.2161,-0.2191,-0.219,-0.2257,-0.2267,-0.2317,-0.2332,-0.2332,-0.2321,-0.2346,-0.2391,-0.2397,-0.2402,-0.2374,-0.2378,-0.2335,-0.2335,-0.2334,-0.2334,0,-0.1934,-0.1976,-0.1996,-0.2046,-0.2079,-0.2118,-0.2156,-0.2202,-0.224,-0.2264,-0.2327,-0.2338,-0.2373,-0.2385,-0.238,-0.243,-0.2403,-0.2394,-0.2375,-0.2416,-0.2383,-0.2386,-0.2341,-0.2339,-0.2338,-0.2337,0,0,-0.1914,-0.1998,-0.2009,-0.205,-0.2117,-0.2143,-0.2212,-0.2271,-0.2321,-0.2365,-0.2421,-0.2459,-0.2466,-0.2476,-0.2477,-0.2493,-0.2518,-0.2471,-0.2469,-0.2452,-0.252,-0.2331,-0.2315,-0.2526,-0.2527,-0.2528,-0.2476,0,-0.1935,-0.2005,-0.2044,-0.2122,-0.2164,-0.222,-0.2278,-0.2337,-0.2385,-0.2443,-0.2468,-0.2513,-0.25,-0.2524,-0.254,-0.2524,-0.253,-0.2531,-0.2477,-0.2474,-0.2308,-0.2313,-0.2532,-0.2478,-0.2478,-0.2478,-0.2479,0,-0.1939,-0.1992,-0.2071,-0.217,-0.2196,-0.225,-0.2352,-0.2404,-0.2483,-0.2521,-0.2571,-0.2583,-0.2618,-0.2596,-0.2594,-0.2598,-0.2568,-0.2548,-0.2546,-0.2345,-0.2289,-0.243,-0.2482,-0.2481,-0.2481,-0.2481,-0.2481,0,-0.19,-0.2007,-0.2074,-0.2108,-0.2221,-0.2281,-0.2344,-0.2434,-0.2479,-0.2569,-0.2601,-0.2646,-0.2655,-0.2649,-0.2595,-0.2609,-0.2566,-0.2574,-0.2373,-0.2359,-0.2514,-0.2508,-0.2571,-0.2571,-0.2571,-0.2571,-0.2571,0,-0.1883,-0.1941,-0.2071,-0.2105,-0.2192,-0.2278,-0.2366,-0.2437,-0.2525,-0.255,-0.2632,-0.263,-0.2672,-0.2644,-0.2609,-0.2468,-0.257,-0.237,-0.2333,-0.2543,-0.2541,-0.2514,-0.2508,-0.2569,-0.257,-0.257,-0.257,0,-0.1812,-0.1901,-0.1985,-0.2125,-0.2174,-0.2233,-0.2364,-0.2406,-0.2511,-0.2544,-0.2569,-0.2623,-0.2566,-0.2565,-0.2529,-0.2444,-0.2361,-0.2289,-0.2487,-0.2464,-0.215,-0.2149,-0.2069,-0.2061,-0.2055,-0.205,-0.2046,0,-0.1775,-0.1815,-0.1976,-0.2016,-0.2084,-0.2188,-0.2241,-0.2379,-0.2404,-0.2492,-0.2473,-0.2477,-0.2478,-0.2259,-0.2299,-0.2204,-0.2179,-0.2136,-0.2171,-0.2126,-0.2099,-0.2108,-0.2114,-0.2037,-0.2035,-0.2033,-0.2032,0,-0.1697,-0.1772,-0.1831,-0.192,-0.1995,-0.206,-0.2144,-0.2149,-0.2261,-0.239,-0.2291,-0.224,-0.2164,-0.211,-0.204,-0.1985,-0.2171,-0.2074,-0.2087,-0.2119,-0.2086,-0.2068,-0.2081,-0.2011,-0.2014,-0.2016,-0.2017,0,-0.1626,-0.1645,-0.1728,-0.1782,-0.1869,-0.1872,-0.1951,-0.1953,-0.1998,-0.2101,-0.2053,-0.2054,-0.2116,-0.1991,-0.1929,-0.1852,-0.1837,-0.1797,-0.1825,-0.1849,-0.18,-0.1728,-0.1497,0,0,0,0,0,-0.1541,-0.1531,-0.1574,-0.161,-0.1686,-0.1725,-0.1843,-0.1918,-0.2038,-0.1904,-0.1971,-0.1882,-0.1778,-0.1794,-0.1663,-0.1841,-0.1855,-0.1686,-0.1828,-0.1895,-0.1919,-0.1883,0,0,0,0,0,0,-0.1476,-0.1509,-0.1515,-0.1446,-0.1425,-0.148,-0.1542,-0.163,-0.1574,-0.1701,-0.1645,-0.1753,-0.1677,-0.1787,-0.1608,-0.1615,-0.1664,-0.1714,-0.1709,-0.1882,-0.1903,-0.1923,-0.1894,0,0,0,0,0]},{"header":{"parameterUnit":"m.s-1","parameterCategory":2,"la1":30.2991,"la2":30.254,"lo1":-89.0895,"lo2":-89.0444,"dy":0.0017,"dx":0.0017,"nx":28,"ny":28,"refTime":"2025-05-27T03:00:00:Z","depth":"4","parameterNumber":3,"parameterNumberName":"V-component_of_CURRENTS"},"data":[0,0,0,0,0,0,0,0,0,0,0,0,0,0,0,0,0,0,0,0,0,0,0,0,0,0,0,0,0,0,0,0,0,0,0,0,0,0,0,0,0,0,0,0,0,0,0,0,0,0,0,0,0,0,0,0,0,0,-0.0355,-0.0354,0,-0.0304,-0.0304,-0.0303,-0.0265,-0.0265,-0.0265,-0.0264,-0.0168,-0.0166,-0.0164,0,0,0,0,0,0,0,0,0,0,0,0,0,-0.0387,-0.0387,-0.0355,-0.0354,-0.0354,-0.0304,-0.0304,-0.0303,-0.0265,-0.0265,-0.0265,-0.0264,-0.0169,-0.0166,-0.0163,0,0,0,0,0,0,0,0,0,0,0,0,0,-0.0358,-0.0387,-0.0355,-0.033,-0.0327,-0.0304,-0.0304,-0.0303,-0.0265,-0.0265,-0.0265,-0.0264,-0.017,-0.0167,-0.0163,-0.015,0,0,-0.0153,-0.0151,0,0,0,0,0,0,0,0,-0.036,-0.0357,-0.0334,-0.0331,-0.0328,-0.0291,-0.028,-0.0249,-0.0265,-0.0288,-0.0264,-0.0264,-0.0206,-0.0199,-0.019,-0.0145,-0.0141,-0.0152,-0.015,-0.0149,-0.0148,0,0,0,0,0,0,0,-0.0362,-0.0359,-0.0334,-0.0333,-0.033,-0.031,-0.0305,-0.0274,-0.0248,-0.0286,-0.0283,-0.0279,-0.0204,-0.0194,-0.0188,-0.014,-0.0152,-0.0149,-0.0147,-0.0146,-0.0083,-0.0083,0,0,0,0,0,0,-0.0372,-0.0361,-0.0336,-0.0333,-0.0344,-0.031,-0.0305,-0.0303,-0.025,-0.0242,-0.0279,-0.0277,-0.02,-0.0192,-0.0184,-0.015,-0.0149,-0.0145,-0.0143,-0.0083,-0.0083,-0.0084,0,0,0,0,0,0,-0.0373,-0.037,-0.0338,-0.0346,-0.034,-0.031,-0.0308,-0.0302,-0.0296,-0.0245,-0.0236,-0.0279,-0.0199,-0.0189,-0.0165,-0.0146,-0.0144,-0.0141,-0.0082,-0.0083,-0.0083,-0.0091,0,0,0,0,0,0,-0.0374,-0.0371,-0.038,-0.0347,-0.034,-0.0331,-0.0308,-0.0302,-0.0294,-0.0291,-0.0242,-0.0233,-0.0198,-0.017,-0.0161,-0.0141,-0.0138,-0.0082,-0.0082,-0.0083,-0.009,-0.0091,-0.0093,0,0,0,0,0,-0.0375,-0.0387,-0.038,-0.0378,-0.0351,-0.0332,-0.0327,-0.0303,-0.0294,-0.0295,-0.0265,-0.0234,-0.0169,-0.0168,-0.0157,-0.0136,-0.0081,-0.0082,-0.0083,-0.0089,-0.0091,-0.0093,0,0,0,0,0,0,-0.0408,-0.0383,-0.0375,-0.038,-0.0361,-0.0326,-0.0328,-0.031,-0.0288,-0.0288,-0.0239,-0.0228,-0.0199,-0.0177,-0.0178,-0.0124,-0.012,-0.0119,-0.0128,-0.0129,-0.0131,-0.0122,-0.0135,0,0,0,0,0,-0.042,-0.0423,-0.0393,-0.0401,-0.0393,-0.0363,-0.0355,-0.0339,-0.0312,-0.0302,-0.0265,-0.023,-0.0195,-0.0172,-0.0143,-0.0113,-0.0072,-0.0096,-0.0097,-0.0098,-0.0087,-0.0009,-0.0001,-0.0087,-0.0087,-0.0087,0,0,-0.0438,-0.0424,-0.0428,-0.0408,-0.0393,-0.038,-0.0357,-0.0351,-0.0334,-0.0295,-0.0267,-0.0237,-0.0192,-0.0158,-0.0142,-0.0134,-0.0058,-0.0099,-0.01,-0.0088,-0.0009,0.0,0.0008,-0.0087,-0.0087,-0.0087,0,0,-0.0467,-0.046,-0.0468,-0.0451,-0.0431,-0.0407,-0.0408,-0.0374,-0.0355,-0.0333,-0.0294,-0.025,-0.0212,-0.0156,-0.0127,-0.0121,-0.0073,-0.0125,-0.0111,-0.0036,-0.0027,-0.0019,0.0027,0.004,-0.0117,-0.0117,-0.0117,0,-0.0489,-0.049,-0.0469,-0.0464,-0.0451,-0.042,-0.0416,-0.0391,-0.0353,-0.0328,-0.0331,-0.0242,-0.0202,-0.0127,-0.0124,-0.0117,-0.0085,-0.0104,-0.0034,-0.0025,-0.0017,0.0029,0.0043,-0.0118,-0.0118,-0.0118,-0.0118,0,-0.0511,-0.0513,-0.0516,-0.0496,-0.048,-0.0475,-0.0433,-0.0414,-0.0392,-0.0354,-0.0296,-0.024,-0.018,-0.0161,-0.0138,-0.0056,-0.0058,-0.0048,-0.0023,-0.0008,0.0038,0.0053,-0.0119,-0.0118,-0.0118,-0.0118,0,0,-0.0554,-0.0536,-0.0538,-0.0535,-0.0495,-0.0486,-0.0454,-0.0408,-0.0384,-0.0336,-0.0289,-0.0211,-0.0176,-0.0141,-0.0096,-0.0024,0.0062,-0.0015,-0.0011,0.0042,0.0207,0.0159,0.0171,0.0083,0.0086,0.0088,0.0209,0,-0.0577,-0.0586,-0.0559,-0.0559,-0.0556,-0.0509,-0.0482,-0.0435,-0.0391,-0.034,-0.0255,-0.0206,-0.0169,-0.0145,-0.0061,0.0023,0.0102,0.0027,0.0175,0.0179,0.0145,0.0187,0.0097,0.0221,0.0224,0.0226,0.0228,0,-0.0601,-0.0603,-0.0615,-0.0589,-0.0583,-0.0577,-0.0525,-0.0494,-0.0404,-0.0369,-0.0286,-0.0228,-0.0113,-0.0097,0.0089,0.0033,0.0124,0.0194,0.02,0.0174,0.016,0.0205,0.0255,0.0253,0.0251,0.0249,0.0248,0,-0.0645,-0.0637,-0.0653,-0.0645,-0.0611,-0.0607,-0.0584,-0.0511,-0.0482,-0.0388,-0.0361,-0.0219,-0.0158,-0.0019,0.0121,0.0108,0.0315,0.0317,0.0368,0.0365,0.0375,0.0365,0.0468,0.0468,0.0467,0.0467,0.0467,0,-0.067,-0.0684,-0.0685,-0.0694,-0.0712,-0.0662,-0.0658,-0.0613,-0.0538,-0.0495,-0.0387,-0.0323,-0.0134,-0.0001,0.0127,0.0285,0.0327,0.0386,0.0405,0.0363,0.0351,0.0384,0.0373,0.0472,0.0471,0.047,0.0469,0,-0.0716,-0.0714,-0.0741,-0.0735,-0.0741,-0.0758,-0.0733,-0.0715,-0.0642,-0.0584,-0.0558,-0.0387,-0.0214,-0.0035,0.0198,0.028,0.0438,0.0489,0.0418,0.0428,0.0436,0.0423,0.056,0.0559,0.0559,0.0559,0.0559,0,-0.0737,-0.0759,-0.0798,-0.083,-0.0839,-0.0854,-0.0859,-0.0788,-0.0758,-0.0618,-0.0588,-0.0411,-0.0287,-0.0001,0.0188,0.0427,0.0458,0.0526,0.0504,0.0447,0.0452,0.0439,0.0427,0.0558,0.0558,0.0558,0.0558,0,-0.0779,-0.0807,-0.0835,-0.0908,-0.0942,-0.0958,-0.0952,-0.0932,-0.0825,-0.0766,-0.0603,-0.0433,-0.0235,-0.0007,0.0176,0.035,0.0471,0.0524,0.0526,0.0505,0.0447,0.0449,0.0437,0.0557,0.0557,0.0557,0.0557,0,-0.0821,-0.0863,-0.0915,-0.0968,-0.1023,-0.1036,-0.1022,-0.0955,-0.0902,-0.0731,-0.0676,-0.0444,-0.029,-0.0044,0.0128,0.0284,0.0324,0.0358,0.0369,0.0373,0.0273,0.0168,0.0226,0,0,0,0,0,-0.0849,-0.0897,-0.0962,-0.1016,-0.107,-0.109,-0.1066,-0.1026,-0.0925,-0.0825,-0.0741,-0.0551,-0.0261,-0.0123,0.0026,0.0105,0.0332,0.0281,0.0371,0.055,0.0552,0.0462,0,0,0,0,0,0,-0.087,-0.0943,-0.0968,-0.104,-0.1083,-0.1122,-0.1108,-0.1037,-0.0959,-0.0841,-0.0684,-0.0557,-0.0278,-0.0361,0.0012,0.0066,0.0134,0.0432,0.0435,0.0549,0.0551,0.0552,0.046,0,0,0,0,0]}]]